Tracking 19570 objects as of 22-Feb-2019
HD Live streaming from Space Station
objects crossing your sky now

COSMOS 1577

Track COSMOS 1577 now!
10-day predictions
COSMOS 1577 is classified as:


NORAD ID: 15077
Int'l Code: 1984-067A
Perigee: 962.0 km
Apogee: 1,012.6 km
Inclination: 83.0 °
Period: 104.7 minutes
Semi major axis: 7358 km
RCS: 2.4814 m2 (large)
Launch date: June 27, 1984
Source: Commonwealth of Independent States (former USSR) (CIS)
Launch site: PLESETSK MISSILE AND SPACE COMPLEX (PKMTR)
aabbcc
Your satellite tracking list
Your tracking list is empty




NASA's NSSDC Master Catalog

Two Line Element Set (TLE):
1 15077U 84067A   19053.43452957  .00000022  00000-0  71010-5 0  9990
2 15077  82.9582  23.1788 0034365 258.4072 213.7785 13.75420155486424
Source of the keplerian elements: AFSPC